Flag for Germany Weather past 2 weeks in Wittenberg, Saxony-Anhalt, Germany

Now
59 °F

Passing clouds.


Feels Like: 60 °F
Forecast: 55 / 74 °F
Wind: 3 mph from East

Location: Holzdorf

Current Time: Sep 16, 2014 at 3:55:54 AM

Latest Report: Sep 16, 2014 at 2:20 AM


Visibility: N/A

Pressure: 30.07 "Hg

Humidity: 88%

Dew point: 55 °F

Location of WittenbergLocation

Historic Weather in Wittenberg — Graph

°F

Wittenberg temperature yesterday

Maximum temperature yesterday: 75 °F (at 3:20 PM)
Minimum temperature yesterday: 61 °F (at 8:00 AM)
Average temperature yesterday: 66 °F

Past Weeks' High & Low Weather Summary

 TemperatureHumidityPressure
High81 °F (Sep 6, 2:20 PM)100% (Sep 1, 2:20 AM)30.27 "Hg (Sep 1, 2:20 AM)
Low50 °F (Sep 9, 6:20 AM)51% (Sep 5, 3:20 PM)29.86 "Hg (Sep 6, 3:20 PM)
Average62 °F85%30.05 "Hg
* Reported Sep 1 2:20 AM — Sep 16 2:20 AM, Wittenberg, Weather by CustomWeather, © 2014

Note: Actual official high and low records may vary slightly from our data, if they occured in-between our weather recording intervals... More about our weather records

Advertising

Wittenberg weather history for previous 24 hours

 ConditionsComfort  
Time TempWeatherWind HumidityBarometerVisibility
2:20 AM
Sep 16
59 °FPassing clouds.3 mph88%30.07 "HgN/A
1:20 AM59 °FPassing clouds.1 mph88%30.07 "HgN/A
12:20 AM63 °FPassing clouds.2 mph77%30.07 "HgN/A
11:20 PM
Sep 15
63 °FPassing clouds.6 mph77%30.07 "HgN/A
10:20 PM63 °FPassing clouds.7 mph83%30.07 "HgN/A
9:20 PM64 °FPassing clouds.7 mph78%30.07 "HgN/A
8:20 PM64 °FScattered clouds.5 mph83%30.07 "HgN/A
7:20 PM68 °FScattered clouds.3 mph73%30.07 "HgN/A
6:20 PM73 °FPassing clouds.6 mph61%30.04 "HgN/A
5:20 PM75 °FPassing clouds.8 mph57%30.07 "HgN/A
5:00 PM75 °FPassing clouds.8 mph57%30.07 "HgN/A
4:20 PM75 °FPassing clouds.8 mph57%30.07 "HgN/A
3:20 PM75 °FPassing clouds.8 mph61%30.07 "HgN/A
2:20 PM72 °FPassing clouds.2 mph73%30.07 "HgN/A
1:20 PM70 °FPassing clouds.8 mph78%30.09 "HgN/A
12:20 PM68 °FPassing clouds.9 mph83%30.09 "HgN/A
11:20 AM68 °FPassing clouds.5 mph83%30.09 "HgN/A
10:20 AM66 °FScattered clouds.6 mph83%30.09 "Hg5 mi
9:20 AM63 °FFog.6 mph94%30.09 "Hg3 mi
8:20 AM61 °FFog.3 mph100%30.07 "Hg2 mi
8:00 AM61 °FFog.3 mph100%30.07 "Hg1 mi
7:20 AM63 °FFog.2 mph94%30.07 "Hg0 mi
6:20 AM63 °FFog.2 mph94%30.07 "Hg0 mi
5:20 AM63 °FFog.3 mph100%30.07 "Hg0 mi
4:20 AM63 °FFog.2 mph100%30.07 "Hg1 mi
3:20 AM63 °FFog.1 mph100%30.07 "Hg1 mi
Weather by CustomWeather, © 2014

See weather overviewHow to use our weather pages